EHI
0 0 0 0 1 1 1 0 0 0 0 1 0 0 0 0 1 2 1 0 0 0 0 0 0 0 0 0 0 0 0 0 0 0 0 0 0 0 0 0 0 1 0
0 0 0 0 0 0 0 0 0 0 0 1 1 0 0 0 1 2 1 0 0 0 0 0 0 0 0 0 0 0 0 0 0 0 0 0 0 0 0 0 1 1 1
0 0 0 0 0 0 0 0 0 0 0 1 1 0 0 0 1 1 1 1 1 0 0 0 0 0 0 0 0 0 0 0 0 0 0 0 0 0 0 0 1 2 1
0 0 0 0 0 1 0 0 0 0 0 0 0 0 0 0 0 0 0 0 0 0 0 1 1 1 0 0 0 0 0 0 0 0 0 1 0 0 0 0 1 1 0
0 0 2 4 4 2 1 0 0 0 0 1 1 0 0 0 0 0 0 0 0 0 0 1 1 1 0 1 0 0 0 0 0 0 0 0 0 0 0 0 0 0 0
0 0 4 12 14 10 6 2 1 1 1 2 2 1 0 0 0 0 0 0 0 0 0 0 0 0 0 0 0 0 0 0 0 0 0 0 0 0 0 0 0 0 0
0 0 4 12 17 17 14 10 8 5 3 2 1 1 0 0 0 0 0 0 0 0 0 0 0 0 0 0 0 0 0 0 0 0 0 0 0 0 0 0 0 0 0
0 0 1 5 9 11 13 15 15 11 6 2 0 0 0 0 0 0 0 0 0 0 0 0 0 0 0 0 0 0 0 0 0 0 0 0 0 0 0 0 0 0 0
0 0 0 0 1 2 5 9 12 11 8 4 1 1 0 0 0 0 0 0 0 0 0 0 0 0 0 0 0 0 0 0 0 0 0 0 0 0 0 0 0 0 0
0 0 0 0 0 0 0 2 4 5 5 4 3 2 1 0 0 0 0 0 0 0 0 0 0 0 0 0 0 0 0 0 0 0 0 0 0 0 0 0 0 0 0
0 0 0 0 0 0 0 0 0 1 1 1 1 1 2 1 1 0 1 2 1 0 0 0 0 0 0 0 0 0 0 0 0 0 0 0 0 0 0 0 0 0 0
0 0 0 0 0 0 0 0 0 0 0 0 0 1 2 3 2 1 2 2 1 0 0 0 0 0 0 0 0 0 0 0 0 1 1 1 0 0 0 0 0 0 0
0 0 0 0 0 0 0 0 0 0 0 0 0 0 2 3 2 2 3 2 1 0 0 0 0 0 0 0 0 0 0 0 0 1 2 1 0 0 0 0 0 0 0
0 0 0 0 0 0 0 0 0 0 0 0 0 0 1 2 2 2 4 4 2 2 1 0 0 0 0 0 0 0 0 0 0 1 1 1 0 0 0 0 0 0 0
0 0 0 0 0 0 0 0 0 0 0 0 0 0 0 1 1 2 4 5 3 4 3 1 0 0 0 0 0 0 0 0 0 0 0 0 0 0 0 0 0 0 0
0 0 0 0 0 0 0 0 0 0 0 0 0 0 0 0 0 2 3 3 3 4 4 2 0 0 0 0 0 0 0 0 0 0 0 0 0 1 0 0 0 0 0
0 0 0 0 0 0 0 0 0 0 0 0 0 0 0 0 0 1 2 1 1 2 3 3 1 0 0 0 0 0 0 0 0 0 0 0 0 0 0 0 0 0 0
0 0 0 0 0 0 0 0 0 0 0 0 0 1 0 0 0 1 2 2 1 1 3 4 3 2 2 2 1 0 0 0 0 0 0 0 0 0 0 0 0 0 0
0 0 0 0 0 0 0 0 0 0 0 0 0 0 0 0 0 1 2 3 1 2 3 5 5 5 6 4 1 0 0 0 0 0 0 0 0 0 0 0 0 0 0
0 0 0 0 0 0 0 0 0 0 0 0 0 0 0 0 0 0 1 2 3 4 5 5 5 6 6 4 1 0 0 0 0 0 0 0 0 0 0 0 0 0 0
0 0 0 0 0 0 0 0 0 0 0 0 0 0 0 0 0 0 1 2 4 7 7 4 4 4 3 3 2 1 0 0 0 0 0 0 0 0 0 0 0 0 0
0 0 0 0 0 0 0 0 0 0 0 0 0 0 0 0 0 0 1 2 4 6 6 4 4 4 3 3 2 1 0 0 0 0 0 1 1 1 0 0 0 0 0
0 0 0 0 0 0 0 0 0 0 0 0 0 0 0 0 0 0 1 2 3 4 4 3 3 3 3 2 1 1 1 1 1 1 0 1 2 2 1 0 0 0 0
0 0 0 0 0 0 0 0 0 0 0 0 0 0 0 0 0 0 0 1 1 2 2 2 1 1 1 1 0 1 2 1 2 2 1 1 1 1 0 0 0 0 0
0 0 0 0 0 0 0 0 0 0 0 0 0 0 0 0 0 0 0 0 0 1 1 0 0 1 0 0 0 1 1 1 1 3 2 2 1 1 0 0 0 0 0
0 0 0 0 0 0 0 0 0 0 0 0 0 0 0 0 0 0 0 0 0 0 0 0 0 1 0 0 0 1 0 0 1 1 1 1 1 1 1 1 1 0 0
Wind_Speed
6 8 10 8 9 8 8 8 7 7 7 7 7 7 7 7 6 5 5 4 4 3 3 3 3 4 4 4 4 4 5 5 5 5 5 6 6 6 6 5 3 7 8
6 8 9 7 8 8 7 7 7 7 6 6 6 6 6 6 5 5 4 4 3 3 3 3 3 3 3 3 3 4 4 4 4 4 2 4 6 5 5 4 5 7 7
5 7 9 7 7 7 7 7 7 6 6 6 6 6 6 6 5 5 4 4 3 3 3 2 2 2 2 2 2 3 3 3 3 2 3 2 6 6 5 5 5 6 6
5 5 5 6 6 6 6 6 7 7 6 6 6 6 6 6 5 5 5 4 4 3 3 3 2 2 2 2 1 1 1 2 2 3 2 2 4 7 4 5 4 5 5
3 3 3 2 4 5 6 7 7 7 7 7 7 7 7 6 6 6 5 5 5 4 3 3 2 2 2 1 1 0 0 1 2 5 2 2 3 5 4 4 4 4 5
3 2 4 3 1 3 4 5 6 7 7 8 8 7 7 7 7 7 6 6 5 5 4 3 3 3 2 2 1 0 1 2 6 1 1 1 3 5 3 4 4 4 5
5 5 5 8 7 5 4 5 6 7 8 8 8 8 8 8 8 8 7 7 6 6 5 4 4 4 3 2 2 1 1 3 4 1 1 1 4 4 3 3 4 4 4
7 6 6 8 9 9 8 8 7 8 8 8 8 9 9 9 9 9 8 8 7 7 6 5 5 4 4 3 3 2 2 6 4 2 2 2 4 2 3 3 3 4 4
8 7 7 7 7 7 8 9 9 9 8 9 9 9 10 10 10 10 9 9 9 8 8 7 6 5 5 4 4 3 3 4 5 2 2 2 4 2 3 3 4 4 4
8 8 7 6 6 6 6 8 9 9 9 8 8 9 10 11 11 11 11 11 10 9 9 8 8 7 6 5 5 5 4 6 6 4 2 4 4 3 3 4 4 4 5
8 7 6 6 6 5 5 6 7 7 7 7 6 8 9 8 10 9 12 9 10 10 10 9 9 8 7 8 7 5 7 6 4 4 2 5 3 3 4 4 5 5 5
8 7 6 5 5 5 5 4 4 4 4 4 4 6 5 6 6 8 6 9 10 11 11 11 10 9 10 8 10 9 7 7 5 4 3 5 4 4 5 5 6 6 6
7 7 7 7 6 6 4 4 3 3 3 4 5 5 5 5 5 6 5 6 9 11 9 9 10 9 9 6 5 7 6 5 4 3 4 6 5 6 6 6 6 7 7
8 8 8 9 8 7 6 5 5 3 3 3 4 5 4 4 4 5 5 6 5 5 6 6 6 8 8 8 8 8 7 5 4 3 4 6 5 6 7 7 7 7 7
8 9 9 9 9 8 7 6 6 5 4 5 4 5 5 4 5 5 5 5 6 5 6 6 7 7 7 7 7 7 7 7 6 5 4 7 6 7 7 8 8 8 8
9 9 9 10 9 9 8 7 6 6 5 6 5 6 7 5 5 6 6 6 5 5 5 6 7 6 6 6 7 7 7 7 7 6 5 8 8 7 7 8 9 9 9
9 9 9 9 9 10 9 9 6 6 6 6 5 7 7 6 6 6 6 5 5 5 6 5 7 6 6 6 7 8 7 7 7 8 7 5 8 10 9 9 9 9 9
9 10 9 8 10 10 9 8 7 6 6 6 5 6 7 7 7 6 6 6 5 5 5 5 5 5 6 6 6 6 7 7 9 8 7 7 6 7 10 10 9 9 9
9 9 9 10 10 10 9 8 7 6 6 6 5 5 6 7 7 7 6 6 6 5 5 6 5 5 5 5 5 5 6 7 7 8 9 9 8 7 7 10 9 8 9
8 9 9 9 9 9 7 7 6 6 6 5 5 5 6 6 7 7 6 7 6 6 6 6 6 5 5 4 5 5 6 7 7 7 8 7 7 9 8 9 9 9 9
8 9 9 9 9 8 7 7 7 7 6 6 5 6 6 6 6 7 6 6 5 6 7 8 7 7 5 4 4 4 5 8 8 7 7 7 8 8 8 9 8 7 8
8 9 9 9 9 9 7 7 6 7 6 6 5 6 6 6 6 6 6 5 6 6 7 8 8 6 5 6 4 4 4 5 6 9 8 7 9 8 9 10 10 9 7
8 9 8 9 9 8 8 6 6 5 5 5 6 6 6 7 6 6 6 6 6 6 6 7 8 9 6 6 6 5 4 6 4 6 10 9 9 7 8 9 10 10 9
8 8 8 8 9 8 8 7 9 7 7 7 6 6 7 6 6 5 6 7 7 6 7 8 8 8 8 6 6 6 5 2 4 5 6 8 10 9 9 8 9 10 10
7 7 7 8 8 8 8 7 8 7 7 7 7 7 7 6 6 6 6 6 7 6 7 7 7 9 8 8 6 6 6 4 6 4 5 6 7 8 9 9 8 8 9
6 5 6 6 7 7 7 7 8 9 9 9 9 8 7 6 5 6 6 6 6 6 7 7 7 9 9 10 8 7 6 6 6 6 5 6 6 7 8 7 8 7 7
Wind_Direction
155 153 146 164 162 159 156 154 153 154 154 153 152 153 155 158 162 162 162 160 156 152 147 135 121 108 97 90 85 86 82 82 79 77 79 89 96 95 95 98 136 104 94
146 151 146 166 165 165 164 163 164 166 166 166 166 166 166 168 171 173 175 175 170 162 153 144 136 118 106 98 88 86 84 83 83 73 80 124 112 102 102 85 31 85 102
147 152 157 167 172 173 175 177 180 182 181 180 181 180 181 183 185 188 191 191 187 181 173 166 161 142 116 103 90 84 85 85 94 86 260 147 119 111 110 106 92 100 105
140 156 157 154 184 186 189 195 198 200 199 199 199 197 195 195 196 198 203 206 205 202 196 189 180 175 145 111 89 79 86 97 107 242 232 82 109 109 115 118 116 112 114
128 132 109 150 200 207 211 213 214 215 215 214 212 209 206 204 208 212 214 217 217 216 212 204 199 195 179 157 121 95 96 143 175 249 64 72 85 105 118 124 128 122 124
97 82 75 41 337 259 243 235 231 228 227 226 223 219 216 215 216 219 219 221 223 224 224 220 216 209 201 196 193 218 224 177 226 166 108 112 102 109 124 127 132 134 135
51 43 43 36 18 353 317 284 265 253 242 235 231 229 228 227 226 225 227 227 229 230 232 229 229 224 217 217 223 228 219 219 252 162 172 134 88 105 128 133 140 147 142
43 37 34 39 23 10 356 341 315 288 270 256 246 242 238 236 235 232 231 232 233 234 236 234 234 235 227 225 230 236 230 250 211 203 178 136 89 132 145 141 141 142 144
45 38 27 19 14 5 358 353 341 323 300 279 263 255 252 246 243 240 235 234 234 232 233 235 233 237 232 229 234 240 235 272 262 225 202 135 121 162 155 139 139 139 139
47 38 27 19 10 357 347 350 341 331 322 306 283 263 257 255 250 244 240 230 234 235 233 234 232 233 233 230 233 235 227 237 237 221 216 116 135 175 161 152 146 143 138
43 34 24 12 4 349 334 343 333 326 323 314 295 278 264 255 251 239 239 228 231 239 237 234 232 231 233 219 223 225 228 236 215 237 200 101 162 177 165 162 159 150 146
26 21 12 1 353 341 334 333 315 313 312 303 298 295 277 265 262 263 251 234 235 239 240 236 234 230 234 220 193 203 226 221 226 221 148 134 189 189 178 174 166 158 152
9 7 1 351 344 335 325 316 311 307 305 289 285 287 281 274 262 258 253 232 228 230 232 220 221 227 226 230 228 214 224 231 221 222 149 151 195 196 187 179 169 163 161
4 357 352 345 337 333 328 319 302 302 304 293 284 280 274 270 261 259 252 249 241 230 229 229 231 227 229 228 225 229 216 227 223 217 148 158 194 199 193 183 176 171 169
358 352 351 340 338 333 328 312 305 301 297 290 279 273 264 258 259 256 252 249 246 242 232 231 234 230 229 235 235 235 230 225 232 210 164 165 191 200 195 187 182 178 173
351 349 346 340 339 333 325 316 311 304 294 286 279 271 266 258 253 255 256 250 248 243 241 240 238 234 232 231 234 231 239 230 230 216 203 173 186 199 199 193 186 182 178
346 345 347 338 339 337 331 325 315 303 297 290 286 280 270 264 261 256 255 250 243 243 239 235 239 235 228 225 231 234 229 233 237 221 206 201 185 187 197 198 192 188 184
343 344 345 340 337 336 332 322 315 310 306 294 288 282 277 271 267 263 258 253 247 241 238 228 223 221 225 224 228 226 227 217 232 228 213 206 200 186 184 192 193 192 191
343 342 344 343 337 336 332 321 316 313 308 301 296 293 289 282 275 267 262 260 253 242 233 229 219 215 219 225 233 233 241 231 225 224 222 213 196 194 185 169 185 190 194
339 340 345 342 340 337 333 328 327 323 318 313 307 303 303 291 281 275 264 259 257 245 233 227 218 213 215 217 237 238 235 240 233 228 231 218 211 199 196 177 182 185 190
341 343 346 345 346 343 340 335 334 333 326 324 320 317 307 298 289 275 271 264 254 248 242 233 222 216 211 202 216 235 239 238 236 223 229 221 214 203 198 191 197 186 180
342 344 343 347 348 347 342 330 324 321 317 322 319 318 313 303 296 283 271 265 256 253 248 237 225 218 208 194 199 210 223 223 233 227 218 222 220 197 208 202 196 194 194
345 344 341 344 345 349 343 336 331 327 315 328 332 326 319 310 300 292 287 279 270 259 249 238 227 220 213 203 203 203 209 215 199 218 218 213 218 204 206 212 206 197 197
345 341 338 346 347 350 344 345 343 338 336 333 328 324 318 313 304 294 285 278 272 264 257 246 231 226 218 211 208 219 233 236 198 200 212 217 213 210 209 208 215 207 198
341 339 337 344 347 350 346 344 335 340 336 331 331 331 325 321 314 306 296 285 275 266 260 257 252 235 226 219 209 203 216 229 232 216 206 204 210 214 214 210 208 212 204
339 338 336 339 346 346 342 341 343 341 338 337 339 337 330 324 318 318 307 290 280 273 266 260 255 245 236 228 220 211 204 202 210 214 220 208 209 212 213 213 217 209 206